Date,TemperatureHighF,TemperatureAvgF,TemperatureLowF,DewpointHighF,DewpointAvgF,DewpointLowF,HumidityHigh,HumidityAvg,HumidityLow,PressureMaxIn,PressureMinIn,WindSpeedMaxMPH,WindSpeedAvgMPH,GustSpeedMaxMPH,PrecipitationSumIn
2013-1-1,20.1,4.7,-3.6,4.1,-6.4,-12.8,78,61,33,29.92,29.78,7,1,7,0.00
2013-1-2,23.0,4.5,-6.3,-2.5,-8.9,-14.0,72,55,32,29.99,29.87,9,3,9,0.00
2013-1-3,25.5,5.1,-8.1,-3.4,-11.0,-18.0,63,49,25,30.04,29.96,6,2,6,0.00
2013-1-4,41.5,17.4,4.6,7.8,-0.4,-7.3,62,48,25,30.01,29.86,5,1,5,0.00
2013-1-5,39.7,19.0,7.0,1.3,-4.4,-9.7,50,39,16,30.12,29.90,7,1,7,0.00
2013-1-6,37.9,19.8,6.4,4.9,-3.4,-12.1,53,39,16,30.12,29.91,8,0,8,0.00
2013-1-7,41.4,20.1,9.9,5.2,-1.2,-4.6,53,42,19,29.94,29.82,4,0,5,0.00
2013-1-8,39.4,23.5,13.8,12.6,3.7,-8.0,61,44,30,30.12,29.80,6,1,6,0.00
2013-1-9,20.3,17.3,15.1,5.1,3.8,2.3,61,55,51,30.12,29.98,4,1,4,0.00
2013-1-10,35.6,23.0,12.9,11.9,3.8,-0.9,59,45,27,29.99,29.53,17,1,17,0.00
2013-1-11,24.3,12.8,-3.8,15.8,-2.9,-19.1,85,51,25,29.62,29.33,20,4,23,0.00
2013-1-12,-3.8,-7.9,-12.5,-14.8,-18.0,-22.6,62,59,56,29.65,29.59,4,3,4,0.00
2013-1-13,-4.4,-7.2,-9.2,-12.5,-14.9,-16.7,70,67,64,29.73,29.70,4,2,4,0.00
2013-1-14,11.7,-3.7,-12.1,-1.2,-13.6,-20.6,71,62,39,29.77,29.67,7,2,7,0.00
2013-1-15,23.4,8.9,-13.0,5.6,-5.7,-22.5,66,52,36,29.99,29.75,17,4,17,0.00
2013-1-16,41.0,21.2,9.0,14.9,7.6,0.5,73,58,34,30.16,29.97,7,1,7,0.00
2013-1-17,39.7,21.3,9.9,15.7,8.3,3.9,78,60,33,30.22,30.12,8,2,8,0.00
2013-1-18,41.4,22.7,10.8,6.8,0.6,-7.0,70,43,17,30.13,30.01,8,2,10,0.00
2013-1-19,46.4,24.0,11.8,9.2,-0.4,-5.0,49,38,16,30.17,30.05,5,1,7,0.00
2013-1-20,43.5,24.3,13.3,4.7,-2.9,-10.9,50,34,13,30.10,30.00,7,1,7,0.00
2013-1-21,46.9,25.3,11.8,13.9,0.9,-7.5,55,38,19,30.08,30.01,11,1,13,0.00
2013-1-22,50.9,30.2,16.2,-0.5,-7.6,-21.7,40,24,10,30.15,30.05,12,2,12,0.00
2013-1-23,52.3,31.5,16.9,16.0,-1.9,-17.8,45,29,10,30.17,30.09,11,1,11,0.00
2013-1-24,49.8,35.8,21.7,23.5,12.8,-5.2,73,42,22,30.11,29.94,24,4,24,0.00
2013-1-25,43.9,33.5,25.7,26.7,23.9,19.5,82,69,49,30.08,29.98,6,2,6,0.00
2013-1-26,40.5,31.0,25.0,30.8,23.1,17.6,92,73,50,29.99,29.79,6,2,6,0.01
2013-1-27,44.1,35.0,23.0,29.5,18.3,13.8,72,53,34,29.77,29.73,17,4,20,0.11
2013-1-28,35.6,26.1,15.1,30.2,20.3,7.9,91,79,57,29.74,29.55,7,0,8,0.05
2013-1-29,21.0,11.6,0.0,9.8,-5.4,-17.5,82,50,27,29.71,29.51,0,0,0,0.01
2013-1-30,28.8,18.9,3.7,5.4,-2.9,-17.7,49,39,29,29.83,29.68,27,5,27,0.00
2013-1-31,40.3,28.6,15.8,6.8,0.8,-8.5,58,34,17,30.00,29.80,26,7,26,0.00
2013-2-1,38.5,28.0,15.6,8.7,4.3,-14.4,62,39,17,30.04,29.90,22,6,22,0.00
2013-2-2,44.4,27.4,14.5,10.2,3.0,-6.4,55,39,15,30.15,30.02,8,2,10,0.00
2013-2-3,43.3,27.4,14.9,9.6,1.8,-8.7,54,37,15,30.12,29.84,10,2,10,0.00
2013-2-4,45.3,27.5,11.3,5.0,-0.7,-8.4,54,34,16,29.92,29.84,14,2,15,0.00
2013-2-5,48.6,28.2,15.4,15.6,7.8,2.0,65,46,20,29.97,29.86,6,2,6,0.00
2013-2-6,44.1,29.3,17.2,18.5,12.0,7.5,73,52,26,29.89,29.77,11,2,11,0.00
2013-2-7,41.4,22.7,9.1,15.5,5.4,-0.3,73,51,22,29.99,29.89,7,2,7,0.00
2013-2-8,38.7,26.0,12.0,20.5,11.0,1.1,74,55,36,29.94,29.65,19,3,19,0.00
2013-2-9,29.1,24.8,18.7,18.9,7.3,-14.5,79,49,20,29.66,29.43,14,4,14,0.00
2013-2-10,31.3,19.7,11.7,11.6,-3.8,-20.9,84,40,18,29.74,29.49,23,3,23,0.00
2013-2-11,19.2,9.9,-1.3,10.8,3.6,-7.1,84,75,57,29.82,29.72,7,2,7,0.00
2013-2-12,31.6,10.9,-4.4,7.0,-1.9,-10.4,78,58,33,29.88,29.80,8,2,8,0.00
2013-2-13,39.6,20.0,4.3,12.0,2.7,-2.9,75,51,26,29.91,29.82,15,2,15,0.04
2013-2-14,35.8,22.0,10.9,10.4,0.7,-8.3,65,43,20,29.98,29.86,14,2,15,0.00
2013-2-15,32.4,20.9,10.4,4.3,-2.7,-8.5,60,38,21,30.10,29.95,19,4,19,0.00
2013-2-16,45.1,25.9,10.0,8.7,2.4,-1.8,63,41,19,30.10,29.93,17,2,20,0.00
2013-2-17,45.3,29.0,14.4,17.9,-4.6,-18.8,75,30,10,29.94,29.60,21,4,21,0.00
2013-2-18,33.1,19.9,5.7,12.5,-5.5,-15.5,74,37,16,29.90,29.63,16,3,16,0.00
2013-2-19,37.9,19.7,3.0,4.8,-6.0,-15.6,50,35,16,29.90,29.65,12,2,12,0.00
2013-2-20,34.3,22.2,13.1,21.0,10.5,-0.5,87,63,38,29.66,29.47,8,1,8,0.00
2013-2-21,33.8,20.2,7.0,19.8,12.4,0.8,87,73,45,29.69,29.47,4,0,4,0.05
2013-2-22,26.6,13.7,1.8,13.7,3.8,-3.6,80,66,41,29.74,29.67,0,0,0,0.00
2013-2-24,19.2,7.1,0.5,5.7,-0.8,-5.1,77,70,53,29.81,29.73,8,0,8,0.00
2013-2-25,37.0,14.5,-2.6,10.3,1.3,-8.0,80,59,30,29.83,29.71,8,2,8,0.06
2013-2-26,26.8,15.6,3.2,11.8,2.9,-8.5,72,57,44,29.87,29.62,15,1,15,0.01
2013-2-27,30.4,11.8,-2.9,0.0,-7.0,-12.1,65,45,21,29.99,29.87,11,2,11,0.00
2013-2-28,36.7,18.5,-0.8,7.9,-3.3,-12.6,67,41,21,30.05,29.94,19,4,19,0.01
2013-3-1,41.2,24.6,9.3,15.4,10.0,1.6,71,56,35,30.16,30.04,58,3,58,0.00
2013-3-2,53.4,32.2,16.3,20.1,14.0,8.0,71,51,25,30.19,30.01,11,2,11,0.00
2013-3-3,48.7,35.8,23.2,21.7,14.2,0.6,68,45,20,30.02,29.70,32,6,32,0.00
2013-3-4,39.6,25.4,7.3,29.7,15.7,-8.2,93,69,28,29.97,29.65,19,2,19,0.07
2013-3-5,48.9,24.5,5.4,11.5,-2.4,-16.1,61,37,13,30.05,29.95,8,2,8,0.00
2013-3-6,52.0,34.6,18.0,16.6,7.5,0.2,52,36,19,30.00,29.83,13,3,13,0.00
2013-3-7,54.3,38.3,24.4,13.6,7.1,-6.2,54,33,12,29.91,29.84,14,3,17,0.00
2013-3-8,47.5,32.8,23.0,28.0,17.6,10.1,94,58,29,29.90,29.61,16,2,16,0.00
2013-3-9,32.0,26.5,19.2,25.6,21.7,16.7,93,82,75,29.62,29.56,4,0,4,0.02
2013-3-10,28.6,28.6,28.6,22.0,22.0,22.0,76,76,76,29.62,29.62,0,0,1,0.02
2013-3-11,28.6,28.6,28.6,22.0,22.0,22.0,76,76,76,29.62,29.62,0,0,1,0.02
2013-3-12,48.6,32.6,28.0,22.0,18.4,9.8,76,61,26,30.09,29.62,14,2,14,0.06
2013-3-13,54.1,37.4,23.9,21.0,15.2,9.0,67,45,22,30.19,30.08,12,2,12,0.00
2013-3-14,60.4,42.2,26.2,22.3,14.1,1.6,63,38,14,30.23,30.12,18,3,18,0.00
2013-3-15,61.0,44.4,29.1,20.8,15.8,5.9,62,37,17,30.14,29.91,19,3,19,0.00
2013-3-16,41.5,34.9,27.0,34.2,24.6,14.9,91,67,40,29.94,29.80,12,2,12,0.04
2013-3-17,42.4,30.2,21.6,31.2,17.9,-0.2,90,64,31,29.82,29.60,19,3,19,0.06
2013-3-18,35.1,29.2,23.9,10.7,3.2,-5.0,54,35,27,29.85,29.73,25,5,25,0.00
2013-3-19,43.7,33.5,18.5,4.0,-6.9,-24.7,42,22,10,30.06,29.83,28,6,28,0.00
2013-3-20,49.5,31.0,12.7,18.8,5.4,-7.7,61,37,19,30.06,29.77,24,4,24,0.00
2013-3-21,40.1,31.1,24.1,30.5,18.7,0.1,88,62,33,29.78,29.60,28,4,28,0.08
2013-3-22,39.2,29.7,14.7,10.9,3.6,-7.5,59,36,18,29.71,29.56,18,8,18,0.00
2013-3-23,36.1,36.1,36.1,5.2,5.2,5.2,29,29,29,29.57,29.57,13,13,18,0.00
2013-3-24,36.1,36.1,36.1,5.2,5.2,5.2,29,29,29,29.57,29.57,13,13,18,0.00
2013-3-25,36.1,36.1,36.1,5.2,5.2,5.2,29,29,29,29.57,29.57,13,13,18,0.00
2013-3-26,36.1,36.1,36.1,5.2,5.2,5.2,29,29,29,29.57,29.57,13,13,18,0.00
2013-3-27,36.1,36.1,36.1,5.2,5.2,5.2,29,29,29,29.57,29.57,13,13,18,0.00
2013-3-28,36.1,36.1,36.1,5.2,5.2,5.2,29,29,29,29.57,29.57,13,13,18,0.00
2013-3-29,36.1,36.1,36.1,5.2,5.2,5.2,29,29,29,29.57,29.57,13,13,18,0.00
2013-3-30,36.1,36.1,36.1,5.2,5.2,5.2,29,29,29,29.57,29.57,13,13,18,0.00
2013-3-31,57.9,38.3,36.1,9.6,5.5,4.7,29,28,16,29.94,29.57,13,12,18,0.07
2013-4-3,50.4,40.6,29.5,27.6,18.7,11.3,59,44,28,30.06,29.95,15,4,15,0.02
2013-4-4,58.3,40.0,24.3,28.2,19.3,12.0,71,48,22,30.09,29.99,9,2,9,0.00
2013-4-5,58.1,43.4,32.7,32.1,22.1,13.9,94,49,22,30.01,29.81,24,4,24,0.01
2013-4-6,56.1,41.3,27.1,31.6,19.9,9.4,96,49,21,29.91,29.83,14,2,14,0.06
2013-4-7,46.6,36.5,30.2,24.8,18.4,13.5,77,51,31,29.86,29.81,17,4,17,0.00
2013-4-8,38.3,35.1,34.0,29.0,28.2,27.2,78,76,67,29.55,29.52,3,2,4,0.00
2013-4-9,35.6,21.0,9.9,29.9,16.1,5.6,92,81,62,29.78,29.52,9,2,9,0.00
2013-4-10,37.9,20.7,1.8,18.4,8.6,-3.3,84,62,41,29.79,29.68,13,3,13,0.14
2013-4-11,19.8,18.1,15.6,9.9,7.0,3.7,70,61,52,29.76,29.73,7,3,9,0.00
2013-4-14,38.7,33.7,26.2,21.7,16.2,8.7,74,51,34,29.67,29.61,17,2,17,0.01
2013-4-15,44.8,32.3,23.7,32.0,22.8,9.3,91,68,54,29.74,29.57,14,3,14,0.04
2013-4-16,53.8,32.3,18.9,27.0,19.1,11.9,91,64,23,29.76,29.56,24,4,24,0.00
2013-4-17,40.5,25.9,11.1,25.3,18.2,6.6,94,75,33,29.81,29.59,100,3,100,1.48
2013-4-18,33.1,17.7,2.7,7.1,0.7,-9.0,83,52,26,29.99,29.78,19,3,19,1.03
2013-4-19,46.6,28.5,10.0,16.9,8.3,-2.4,67,46,26,30.00,29.86,14,2,15,0.00
2013-4-20,49.5,33.1,21.6,27.3,19.7,14.3,82,60,32,29.95,29.83,18,2,18,0.00
2013-4-21,52.5,38.6,25.0,24.1,15.8,2.1,83,46,19,30.00,29.91,20,4,20,0.00
2013-4-22,51.8,39.0,21.9,31.5,22.4,12.1,88,57,26,29.93,29.79,14,4,14,0.00
2013-4-23,36.0,22.3,12.9,21.2,12.6,3.9,87,69,36,29.97,29.83,11,1,11,0.15
2013-4-24,31.3,18.1,9.3,14.8,7.2,1.6,73,63,42,29.98,29.64,4,1,5,0.00
2013-4-25,58.5,37.6,21.2,26.5,17.9,11.8,72,49,21,29.68,29.50,14,3,14,0.00
2013-4-26,57.9,41.7,27.0,25.0,16.3,4.6,70,43,18,30.15,29.57,12,3,12,0.00
2013-4-27,61.0,43.7,25.7,25.7,15.8,2.1,83,42,14,30.16,30.04,14,3,14,0.00
2013-4-28,66.4,48.5,29.1,21.0,16.5,12.9,57,33,18,30.07,29.92,12,4,12,0.00
2013-4-29,67.1,53.0,33.6,26.5,18.2,8.5,59,30,18,29.94,29.78,18,4,19,0.00
2013-4-30,67.8,53.5,35.8,25.5,18.0,8.2,53,30,18,29.80,29.72,21,4,21,0.00
2013-5-1,48.6,31.5,21.6,32.8,25.6,18.1,94,80,41,30.14,29.76,14,4,15,0.04
2013-5-2,21.6,21.6,21.6,18.1,18.1,18.1,86,86,86,30.13,30.13,0,0,0,0.04
2013-5-7,54.3,42.9,30.7,39.1,31.0,22.4,99,67,34,29.96,29.90,12,2,12,0.32
2013-5-8,44.1,35.2,30.9,37.1,32.6,30.4,99,90,63,29.99,29.92,7,1,8,0.73
2013-5-9,49.5,35.5,28.6,36.5,31.5,27.2,99,87,56,30.11,29.96,10,1,10,0.02
2013-5-10,53.6,38.7,24.3,33.6,28.6,23.5,99,71,39,30.21,30.07,12,3,12,0.00
2013-5-11,57.9,43.6,30.0,31.7,27.6,19.5,87,59,28,30.25,30.15,11,2,11,0.00
2013-5-12,67.8,51.3,35.1,35.6,29.0,24.0,82,48,25,30.21,30.12,8,2,11,0.00
2013-5-13,70.7,56.2,36.5,36.5,32.5,26.0,73,45,26,30.22,30.13,14,3,14,0.00
2013-5-14,73.6,53.6,38.3,38.7,34.7,28.9,80,54,25,30.14,30.02,14,2,14,0.00
2013-5-15,70.3,48.6,36.7,45.2,38.2,32.8,99,71,29,30.04,29.98,9,3,11,0.06
2013-5-16,70.0,52.9,34.7,36.4,30.2,23.4,99,52,23,29.99,29.88,14,3,14,0.01
2013-5-17,72.9,55.5,36.7,31.8,20.8,6.7,65,33,13,29.99,29.88,13,4,13,0.00
2013-5-18,62.8,48.3,37.4,29.5,22.1,14.7,58,39,22,29.96,29.87,20,4,20,0.00
2013-5-19,55.2,43.2,31.1,28.3,21.7,10.8,76,47,23,29.90,29.83,18,4,18,0.00
2013-5-20,59.7,41.0,26.8,34.2,25.6,21.0,80,58,28,29.99,29.87,15,3,17,0.00
2013-5-21,61.5,44.0,27.5,28.5,23.2,17.9,77,49,23,30.01,29.90,14,3,16,0.00
2013-5-22,70.0,50.0,16.3,31.1,26.8,11.0,80,47,20,29.99,29.88,14,3,14,0.00
2013-5-23,71.1,52.4,37.8,40.4,33.2,15.7,85,55,16,30.04,29.91,19,4,19,0.00
2013-5-24,73.0,57.3,37.9,41.2,24.9,8.1,92,41,14,30.06,29.97,14,4,15,0.00
2013-5-25,75.6,60.6,38.1,26.7,16.2,8.4,43,23,13,30.06,29.96,20,4,20,0.00
2013-5-26,75.4,58.5,38.3,24.9,17.4,8.8,44,25,13,30.04,29.91,14,4,14,0.00
2013-5-27,64.6,51.0,38.8,19.0,12.0,4.3,35,24,18,29.99,29.94,9,3,11,0.00
2013-5-28,68.7,60.4,44.6,19.8,14.5,0.8,38,21,11,29.83,29.73,20,6,20,0.00
2013-5-29,59.4,47.4,37.0,28.8,22.2,16.8,62,40,26,29.79,29.70,18,4,18,0.00
2013-5-30,58.5,49.7,37.8,18.9,13.2,7.5,47,27,17,29.92,29.76,27,7,27,0.00
2013-5-31,61.2,49.3,37.8,22.1,12.2,3.1,51,27,15,30.04,29.90,24,5,24,0.00
2013-6-1,67.5,51.8,31.6,27.8,17.1,5.1,47,29,18,30.13,30.03,13,4,13,0.00
2013-6-2,76.5,56.0,31.6,32.9,24.9,15.8,79,38,15,30.14,29.94,17,4,17,0.00
2013-6-3,75.6,58.1,39.6,33.4,24.6,19.8,51,32,18,30.00,29.91,19,4,19,0.00
2013-6-4,74.5,56.8,39.9,33.2,29.1,25.3,58,39,22,30.06,29.97,14,3,14,0.00
2013-6-5,75.7,53.2,39.0,44.7,35.7,17.7,86,59,17,30.10,29.97,14,3,14,0.00
2013-6-6,74.7,55.3,32.9,40.6,32.6,24.3,92,52,20,30.12,30.00,9,2,10,0.00
2013-6-7,68.7,53.5,39.0,45.6,35.2,26.8,84,54,30,30.12,29.96,15,3,15,0.02
2013-6-8,77.9,60.4,42.4,37.4,29.9,25.0,65,38,18,30.05,29.94,18,4,18,0.00
2013-6-9,83.7,62.5,38.8,39.6,30.4,21.5,81,39,15,30.12,30.03,11,3,12,0.00
2013-6-10,85.5,66.2,45.7,37.8,29.3,24.4,50,30,16,30.12,30.02,17,4,20,0.00
2013-6-11,81.9,66.6,48.2,31.2,21.1,15.4,42,22,13,30.12,29.99,19,5,19,0.00
2013-6-12,62.2,56.4,49.1,17.0,16.0,14.3,29,23,20,30.14,30.11,8,3,8,0.00
2013-6-20,79.7,66.4,50.5,22.0,17.7,13.5,26,19,13,30.02,29.93,11,4,11,0.00
2013-6-21,81.1,63.9,42.8,23.3,18.3,12.9,39,22,13,30.05,29.95,19,5,24,0.00
2013-6-22,79.5,62.3,43.3,24.4,16.6,10.5,38,21,13,30.04,29.92,15,4,15,0.00
2013-6-23,77.4,60.3,40.8,35.4,21.2,11.0,39,26,16,30.06,29.92,19,4,19,0.00
2013-6-24,79.5,60.1,42.6,42.1,22.0,11.4,57,30,14,30.03,29.92,14,4,16,0.00
2013-6-25,80.6,64.2,47.1,32.5,23.2,13.0,35,24,19,30.13,29.98,17,4,17,0.00
2013-6-26,82.6,60.3,46.4,36.4,29.1,23.1,50,34,22,30.20,30.12,10,3,10,0.00
2013-7-1,77.9,62.3,46.9,56.6,47.5,36.9,99,67,28,30.26,30.17,11,3,11,0.24
2013-7-2,80.1,58.2,43.0,51.8,45.1,37.6,99,70,28,30.25,30.10,10,3,10,0.02
2013-7-3,81.5,57.1,41.5,49.8,42.8,33.2,99,67,22,30.18,30.04,18,3,18,0.02
2013-7-4,80.1,61.5,45.1,49.5,41.6,36.8,82,55,28,30.11,30.00,13,3,13,0.00
2013-7-5,79.9,64.7,50.7,54.5,45.9,39.8,99,56,31,30.08,29.95,14,3,14,0.06
2013-7-6,77.7,61.8,49.1,54.8,49.1,44.6,99,69,36,30.13,30.02,11,3,14,0.04
2013-7-7,79.7,61.0,50.0,60.5,52.2,47.0,99,79,37,30.18,30.07,11,2,12,0.11
2013-7-8,81.7,62.3,45.5,57.3,46.5,35.6,99,66,24,30.22,30.13,17,3,17,0.21
2013-7-9,82.0,66.3,48.7,44.8,41.1,36.6,69,45,26,30.27,30.18,9,3,15,0.00
2013-7-10,82.2,65.2,52.5,57.6,47.1,42.1,75,55,31,30.26,30.13,19,3,19,0.04
2013-7-11,59.0,52.4,48.6,49.4,47.6,46.6,94,84,70,30.20,30.17,4,2,4,0.00
2013-7-12,60.6,57.8,56.1,55.5,52.8,51.2,87,84,82,30.14,30.11,3,2,4,0.02
2013-7-13,80.2,65.8,52.0,52.9,49.9,44.2,89,61,36,30.19,30.11,9,2,11,0.00
2013-7-14,80.1,60.5,9.1,56.8,50.4,45.1,99,75,36,30.23,30.13,63,3,63,0.69
2013-7-15,64.8,54.0,47.1,59.6,52.9,46.7,99,96,73,30.23,30.13,9,2,9,0.28
2013-7-16,72.0,57.1,43.3,54.5,48.1,43.1,99,76,43,30.26,30.14,13,3,13,0.01
2013-7-17,78.4,61.3,43.3,53.6,47.7,42.1,99,66,35,30.27,30.16,11,4,11,0.00
2013-7-18,82.9,59.4,47.8,55.0,49.9,43.8,99,76,35,30.27,30.12,21,3,21,0.78
2013-7-19,74.8,55.9,46.2,59.3,52.4,46.0,99,91,46,30.24,30.15,10,2,10,0.27
2013-7-20,82.2,62.6,45.0,57.5,47.6,36.6,99,67,26,30.19,30.01,11,3,11,0.01
2013-7-21,82.4,66.6,48.7,53.5,46.0,32.7,99,55,22,30.11,30.03,11,3,11,0.00
2013-7-22,80.8,64.0,48.9,53.3,43.0,39.0,76,51,29,30.15,30.06,11,3,13,0.01
2013-7-23,85.8,67.4,47.3,45.7,37.9,30.2,71,41,19,30.20,30.10,11,3,11,0.00
2013-7-24,69.3,59.8,51.8,56.5,48.5,40.6,91,68,44,30.24,30.15,21,3,21,0.12
2013-7-25,75.4,57.9,47.1,57.3,50.6,46.5,99,80,42,30.27,30.14,11,2,11,0.12
2013-7-26,78.6,60.1,43.0,54.3,48.3,42.7,99,70,35,30.27,30.19,11,3,11,0.01
2013-7-27,74.1,56.6,46.4,54.8,49.9,45.8,99,82,47,30.23,30.08,21,3,21,0.28
2013-7-28,65.1,55.0,50.0,58.9,52.6,49.7,99,93,64,30.11,30.01,14,2,14,0.18
2013-7-29,74.5,58.4,47.8,52.9,48.1,41.9,99,75,38,30.20,30.05,15,3,15,0.01
2013-7-30,58.8,50.3,43.7,46.9,42.3,39.2,96,76,56,30.29,30.20,5,3,5,0.00
2013-7-31,53.1,47.5,44.4,42.6,39.1,37.2,80,73,66,30.32,30.28,4,3,4,0.00
2013-8-1,69.3,63.6,54.5,54.0,47.7,43.0,75,58,46,30.21,30.12,10,3,10,0.00
2013-8-2,77.9,63.6,49.5,51.7,47.1,42.5,91,60,36,30.17,30.08,12,3,12,0.00
2013-8-3,79.3,60.5,49.8,56.6,47.1,39.4,92,66,32,30.26,30.14,18,3,18,0.05
2013-8-4,79.5,61.8,45.1,53.5,47.5,40.6,99,66,32,30.25,30.13,15,3,15,0.00
2013-8-5,72.9,56.8,46.6,55.4,48.0,43.7,98,76,39,30.22,30.13,8,2,8,0.02
2013-8-6,73.4,56.1,45.1,54.0,47.6,40.3,99,78,39,30.18,30.10,12,2,12,0.07
2013-8-7,49.6,47.8,45.3,49.4,47.6,45.1,99,99,99,30.14,30.11,3,1,3,0.00
2013-8-8,47.8,47.8,47.8,47.6,47.6,47.6,99,99,99,30.12,30.12,1,1,2,0.00
2013-8-9,69.8,52.8,39.4,49.6,45.7,39.0,99,81,43,30.25,30.12,11,2,11,0.28
2013-8-10,74.7,55.5,39.7,51.1,43.0,36.1,99,69,29,30.25,30.17,24,3,24,0.04
2013-8-11,72.0,54.5,40.8,50.8,42.5,35.9,97,68,36,30.23,30.14,13,3,17,0.06
2013-8-12,71.1,53.9,43.2,52.7,45.1,40.3,98,75,38,30.23,30.15,12,3,12,0.07
2013-8-13,74.1,55.7,38.8,47.8,41.3,32.4,99,66,28,30.23,30.15,16,3,16,0.01
2013-8-14,78.3,56.8,40.1,46.8,38.1,29.4,99,59,21,30.23,30.15,17,4,17,0.02
2013-8-15,80.1,60.0,40.8,41.6,33.6,28.2,74,44,21,30.22,30.14,17,3,17,0.00
2013-8-16,80.4,61.7,43.5,41.5,35.5,29.3,72,44,23,30.25,30.17,14,3,18,0.00
2013-8-17,81.5,62.8,46.4,44.2,36.0,31.9,68,42,22,30.25,30.13,9,2,9,0.00
2013-8-18,77.9,58.7,47.5,51.0,42.1,35.4,88,58,31,30.24,30.17,17,4,17,0.11
2013-8-19,82.0,62.5,44.6,50.3,43.9,38.0,91,58,28,30.24,30.13,14,3,15,0.00
2013-8-20,82.0,64.0,46.9,47.6,42.0,36.8,80,50,24,30.19,30.10,11,3,11,0.00
2013-8-21,79.9,61.4,49.6,54.7,45.6,40.4,83,59,34,30.22,30.14,12,3,12,0.07
2013-8-22,79.3,62.5,47.8,53.6,47.4,42.8,86,63,34,30.24,30.11,11,3,12,0.01
2013-8-23,68.5,53.7,46.2,53.9,49.9,46.0,99,88,59,30.22,30.15,8,2,8,0.00
2013-9-4,82.0,62.9,49.3,54.7,51.3,47.3,99,72,38,30.30,30.21,12,3,12,0.25
2013-9-5,81.5,63.4,45.5,55.4,46.9,38.8,99,63,27,30.29,30.17,13,3,13,0.01
2013-9-6,84.4,64.8,48.6,51.9,44.1,40.0,83,52,26,30.27,30.13,14,3,14,0.00
2013-9-7,82.6,63.9,46.4,49.1,42.8,37.6,84,53,25,30.22,30.09,14,3,14,0.00
2013-9-8,77.4,62.2,47.7,49.7,42.9,33.7,84,54,27,30.17,29.98,16,3,16,0.00
2013-9-9,73.8,59.3,45.7,52.2,45.4,39.2,99,66,33,30.06,29.96,11,3,11,0.11
2013-9-10,63.7,54.6,49.5,54.5,51.3,48.4,99,90,60,30.16,30.05,16,3,18,0.13
2013-9-11,64.8,53.6,49.5,57.3,52.3,49.2,99,95,71,30.18,30.12,10,2,10,0.20
2013-9-12,61.9,53.9,48.9,58.6,52.5,48.7,99,95,80,30.21,30.12,12,2,12,0.20
2013-9-13,53.1,53.1,53.1,51.4,51.4,51.4,94,94,94,30.14,30.14,1,1,2,0.20
2013-9-14,53.1,53.1,53.1,51.4,51.4,51.4,94,94,94,30.14,30.14,1,1,2,0.20
2013-9-15,53.1,53.1,53.1,51.4,51.4,51.4,94,94,94,30.14,30.14,1,1,2,0.20
2013-9-16,65.7,54.1,43.3,55.8,49.0,42.9,99,85,50,30.19,30.09,14,3,14,0.60
2013-9-17,71.2,53.5,39.4,51.6,44.4,39.1,99,76,37,30.15,29.97,17,3,17,0.00
2013-9-18,68.9,51.1,43.0,54.3,46.1,39.3,99,86,38,30.03,29.95,15,3,15,0.18
2013-9-19,69.1,50.7,21.9,49.0,40.4,10.1,99,73,32,30.11,30.00,12,3,12,0.00
2013-9-20,69.6,50.5,37.6,43.3,36.8,26.7,99,66,25,30.13,30.02,9,3,9,0.00
2013-9-21,71.1,52.5,37.0,43.9,37.7,31.4,95,62,31,30.09,29.94,18,3,18,0.00
2013-9-22,55.4,45.9,39.9,44.6,39.6,36.9,92,79,66,29.95,29.89,5,2,5,0.00
2013-9-24,68.7,50.9,28.2,35.3,27.8,-26.1,82,46,21,30.14,29.98,8,3,8,1.50
2013-9-25,69.6,52.9,33.1,35.9,28.0,22.8,80,45,22,29.98,29.72,22,5,22,0.00
2013-9-26,67.3,54.8,40.8,28.7,23.0,16.7,48,32,20,29.83,29.75,18,5,18,0.00
2013-9-27,54.0,45.3,34.0,39.5,27.5,9.9,74,51,34,29.97,29.75,22,6,22,0.00
2013-9-28,59.5,40.3,23.7,25.8,18.4,7.7,65,44,24,30.12,29.94,12,3,14,0.00
2013-9-29,66.0,47.6,31.1,25.4,20.8,13.9,71,41,20,30.12,29.97,17,4,17,0.00
2013-9-30,72.9,53.6,41.0,36.2,26.3,17.4,53,38,28,30.04,29.93,14,3,14,0.00
2013-10-1,69.6,52.0,36.1,33.7,28.1,18.7,63,44,26,30.07,29.96,14,4,14,0.00
2013-10-2,68.2,49.4,33.1,29.0,23.3,15.2,70,42,19,30.04,29.91,14,3,14,0.00
2013-10-3,66.0,50.9,33.3,28.5,23.3,20.6,62,39,22,29.92,29.71,21,4,21,0.00
2013-10-4,50.0,34.8,22.5,26.4,11.1,-0.7,62,40,20,30.03,29.70,18,5,18,0.00
2013-10-5,50.5,32.0,17.1,14.5,8.0,3.1,67,41,18,30.15,30.01,25,5,25,0.00
2013-10-6,65.8,42.3,23.2,26.2,13.9,1.4,47,35,24,30.19,30.12,13,4,13,0.00
2013-10-7,70.5,53.7,30.4,28.5,20.1,8.0,69,33,14,30.17,30.01,13,4,13,0.00
2013-10-8,65.7,47.8,32.7,25.7,21.9,17.8,58,40,21,30.02,29.82,13,4,16,0.00
2013-10-9,59.7,45.8,31.3,29.3,21.6,11.6,70,43,21,29.94,29.86,15,4,15,0.00
2013-10-10,47.7,40.7,33.3,35.5,27.9,16.1,86,62,34,29.91,29.64,24,5,24,0.01
2013-10-11,51.3,40.5,27.5,23.7,19.2,15.0,63,44,32,29.99,29.69,27,6,27,0.00
2013-10-12,52.0,36.5,22.1,30.0,23.0,15.7,81,61,40,30.05,29.95,14,4,14,0.00
2013-10-13,59.0,42.3,26.2,36.0,29.4,19.4,85,63,32,30.05,29.88,16,4,16,0.00
2013-10-14,50.0,38.7,25.0,35.0,21.9,13.6,86,54,30,30.00,29.82,24,5,24,0.00
2013-10-15,40.5,28.3,19.6,26.5,21.9,15.0,94,78,56,30.03,29.95,11,3,11,0.00
2013-10-16,46.8,31.0,20.1,26.6,19.1,7.5,96,67,32,29.99,29.91,11,2,11,0.08
2013-10-17,51.1,31.6,17.4,16.7,12.9,8.2,76,51,22,29.99,29.86,17,4,17,0.00
2013-10-18,43.5,31.0,21.9,21.0,10.9,-1.7,91,49,21,30.02,29.87,15,4,15,0.00
2013-10-19,54.7,35.8,19.6,18.9,12.0,3.6,65,41,24,30.03,29.94,17,4,17,0.00
2013-10-20,53.1,38.4,27.7,23.6,15.0,10.1,73,41,27,29.99,29.84,12,3,12,0.00
2013-10-21,53.1,35.3,20.1,24.5,16.3,7.7,92,54,21,30.10,29.97,17,3,17,0.00
2013-10-22,59.0,38.1,24.8,22.8,17.8,13.6,67,47,27,30.14,30.05,9,3,9,0.00
2013-10-23,61.5,41.3,26.8,21.7,17.2,13.0,62,42,23,30.12,30.04,8,3,8,0.00
2013-10-24,60.4,40.9,26.8,23.1,18.0,11.9,66,44,22,30.14,30.04,10,3,10,0.00
2013-10-25,55.6,39.4,27.0,36.4,24.7,15.5,92,59,35,30.14,30.04,11,3,11,0.01
2013-10-26,55.8,40.0,27.7,33.3,25.7,20.1,89,61,31,30.20,30.12,13,3,13,0.00
2013-10-27,56.7,38.4,26.1,26.7,20.4,17.1,76,52,27,30.12,29.87,14,3,14,0.00
2013-10-28,54.9,39.6,28.9,31.0,20.9,13.2,80,52,24,29.89,29.78,18,4,18,0.00
2013-10-29,48.6,36.0,24.6,32.4,20.5,15.0,98,57,29,29.88,29.75,29,4,29,0.00
2013-10-30,41.7,30.2,18.9,28.0,13.9,8.4,86,53,34,29.83,29.74,17,4,29,0.01
2013-10-31,43.3,31.1,20.3,16.0,11.8,6.4,71,47,31,29.90,29.76,27,5,27,0.00
2013-11-1,48.4,31.0,19.4,18.9,11.9,3.8,80,52,20,30.11,29.88,17,4,17,0.00
2013-11-2,59.7,35.1,18.7,12.5,5.3,-10.2,63,37,10,30.11,29.89,15,4,15,0.00
2013-11-3,53.1,37.8,24.4,25.0,13.7,6.4,75,40,28,29.90,29.63,22,5,22,0.00
2013-11-4,42.3,31.3,23.2,21.6,15.9,8.3,92,56,36,29.83,29.73,27,4,27,0.00
2013-11-5,34.9,22.8,8.1,22.8,10.9,-3.5,95,64,28,30.00,29.73,9,0,9,0.05
2013-11-6,41.2,24.7,7.7,14.6,6.1,-4.1,64,47,30,30.19,29.99,29,4,29,0.01
2013-11-7,53.1,31.5,17.4,22.8,14.9,9.7,75,54,28,30.23,30.08,7,3,7,0.00
2013-11-8,55.4,42.9,27.5,15.6,12.0,-3.9,53,33,13,30.01,29.87,99,6,99,6.99
2013-11-9,56.8,36.2,26.2,18.4,13.8,10.3,58,43,22,30.13,29.99,7,3,7,0.00
2013-11-10,57.9,36.5,24.3,16.2,12.8,9.5,58,42,20,30.17,30.08,13,3,13,0.00
2013-11-11,56.8,36.0,24.3,18.0,13.0,9.5,59,42,21,30.29,30.13,11,3,11,0.00
2013-11-12,50.7,29.7,16.0,26.2,15.1,8.9,96,58,29,30.38,30.27,8,3,8,0.00
2013-11-13,54.0,36.6,21.2,16.2,10.9,8.4,59,39,20,30.28,29.98,11,3,11,0.00
2013-11-14,50.4,34.4,23.5,21.0,12.7,1.0,70,43,26,30.00,29.78,10,3,10,0.00
2013-11-15,45.3,35.0,21.7,30.1,18.3,2.9,99,58,27,29.79,29.55,25,4,25,0.00
2013-11-16,39.6,31.2,25.9,29.1,21.1,10.5,99,70,37,29.57,29.47,40,8,40,0.00
2013-11-17,43.7,30.9,20.1,25.3,14.8,5.3,99,56,26,29.96,29.26,24,6,24,0.00
2013-11-18,49.5,28.7,16.0,21.9,13.3,6.5,72,56,27,29.39,29.29,6,3,7,0.00
2013-11-19,24.3,23.5,20.3,14.5,13.6,10.8,68,65,64,29.31,29.19,4,2,4,0.00
2013-11-20,24.3,24.3,24.3,14.1,14.1,14.1,65,65,65,29.20,29.20,2,2,3,0.00
2013-11-21,24.3,24.3,24.3,14.1,14.1,14.1,65,65,65,29.20,29.20,2,2,3,0.00
2013-11-22,24.3,22.4,14.2,22.5,17.6,12.3,95,83,65,30.21,29.20,2,1,3,0.05
2013-11-23,25.9,20.8,18.0,22.1,18.8,16.8,95,92,81,30.23,30.06,3,0,3,0.00
2013-11-24,31.3,22.7,12.7,27.2,20.3,10.7,98,91,74,30.06,29.79,8,0,8,0.01
2013-11-25,36.0,23.2,13.3,26.5,17.8,11.0,91,80,54,30.09,29.81,11,2,11,0.02
2013-11-26,36.1,20.5,12.6,22.2,14.4,9.7,92,79,51,30.15,30.08,10,3,10,0.00
2013-11-27,40.8,22.4,11.3,25.3,15.5,8.0,88,76,50,30.12,29.99,5,3,5,0.02
2013-11-28,42.3,24.0,16.0,21.3,15.0,11.4,84,70,38,30.07,30.00,5,3,5,0.01
2013-11-29,41.5,27.7,16.2,18.8,13.5,8.8,75,58,35,30.10,30.03,6,3,6,0.00
2013-11-30,41.4,22.9,13.5,18.3,10.8,6.6,77,62,34,30.12,30.03,7,3,7,0.00
2013-12-1,44.1,29.5,13.6,21.6,12.2,5.1,71,51,29,30.06,29.86,26,5,26,0.00
2013-12-2,45.0,39.5,32.4,19.5,15.9,11.6,55,40,32,29.90,29.66,30,12,30,0.00
2013-12-3,37.8,30.0,26.2,26.4,21.0,11.1,99,74,36,29.67,29.42,17,2,17,0.00
2013-12-4,27.5,17.3,-1.1,27.3,15.1,-5.4,99,91,80,29.66,29.33,1,0,1,0.00
2013-12-5,0.0,-0.3,-1.1,-5.4,-5.4,-5.4,81,23,81,29.67,29.56,0,0,0,0.00
2013-12-6,0.0,0.0,0.0,-5.4,-5.4,-5.4,0,0,100,29.80,29.64,0,0,0,0.00
2013-12-7,0.0,0.0,0.0,-5.4,-5.4,-5.4,0,0,100,29.79,29.49,0,0,0,0.00
2013-12-8,0.0,0.0,0.0,-5.4,-5.4,-5.4,0,0,100,29.69,29.44,0,0,0,0.00
2013-12-9,0.0,0.0,0.0,-5.4,-5.4,-5.4,0,0,100,29.97,29.68,0,0,0,0.00
2013-12-10,67.8,22.9,0.0,29.7,6.4,-5.4,27,9,27,29.97,29.82,0,0,0,0.00
2013-12-11,67.6,42.5,9.7,29.5,14.0,-3.0,57,36,15,30.10,29.90,6,2,8,0.08
2013-12-12,18.1,15.8,8.8,-2.8,-4.6,-4.9,56,41,37,30.01,29.97,7,4,7,0.00
2013-12-13,17.6,17.6,17.6,-4.9,-4.9,-4.9,37,37,37,29.98,29.98,4,4,5,0.00
2013-12-14,17.6,17.6,17.6,-4.9,-4.9,-4.9,37,37,37,29.98,29.98,4,4,5,0.00
2013-12-15,17.6,17.6,17.6,-4.9,-4.9,-4.9,37,37,37,29.98,29.98,4,4,5,0.00
2013-12-16,17.6,17.6,17.6,-4.9,-4.9,-4.9,37,37,37,29.98,29.98,4,4,5,0.00
2013-12-17,17.6,17.6,17.6,-4.9,-4.9,-4.9,37,37,37,29.98,29.98,4,4,5,0.00
2013-12-18,17.6,17.6,17.6,-4.9,-4.9,-4.9,37,37,37,29.98,29.98,4,4,5,0.00
2013-12-19,17.6,17.6,17.6,-4.9,-4.9,-4.9,37,37,37,29.98,29.98,4,4,5,0.00
2013-12-20,17.6,17.6,17.6,-4.9,-4.9,-4.9,37,37,37,29.98,29.98,4,4,5,0.00
2013-12-21,17.6,17.6,17.6,-4.9,-4.9,-4.9,37,37,37,29.98,29.98,4,4,5,0.00
2013-12-22,27.7,19.4,17.6,3.6,-2.9,-4.9,48,38,30,29.98,29.64,22,5,22,0.00
2013-12-23,34.2,21.8,14.5,11.7,4.8,-3.5,75,50,34,29.94,29.75,21,4,21,0.00
2013-12-24,36.0,21.6,15.8,16.1,11.0,8.3,76,65,41,29.90,29.79,18,4,18,0.00